Fort Campbell, TN

10:46 PM CDT on September 24, 2016 (GMT -0500)
Outlaw

Weather History for KCKV - November, 2013

Change the Weather History Date:

Thursday, November 21, 2013

  Actual Average Record
Temperature  
Mean Temperature 55 °F -  
Max Temperature 66 °F - 79 °F (1979)
Min Temperature 43 °F - 17 °F (1987)
Degree Days  
Heating Degree Days 10    
Month to date heating degree days 340  
Since 1 July heating degree days 568  
Cooling Degree Days 0    
Month to date cooling degree days 0  
Growing Degree Days 5 (Base 50)    
Moisture  
Dew Point 45 °F    
Average Humidity 69    
Maximum Humidity 86    
Minimum Humidity 52    
Precipitation  
Precipitation 0.02 in - 2.06 in (1977)
Month to date precipitation 2.48  
Sea Level Pressure  
Sea Level Pressure 30.21 in    
Wind  
Wind Speed 6 mph (SSE)    
Max Wind Speed 16 mph    
Max Gust Speed 20 mph    
Visibility 10 miles    
Events Rain    
T = Trace of Precipitation, MM = Missing Value Source: NWS Daily Summary

Daily Weather History Graph

Daily Weather History Graph

Search for Another Location

Airport or City:

Trip Planner

Search our weather history database for the weather conditions in past years. The results will help you decide how hot, cold, wet, or windy it might be!

Date:

Astronomy

Nov. 21, 2013 Rise Set
Actual Time 6:33 AM CST 4:37 PM CST
Civil Twilight 6:05 AM CST 5:05 PM CST
Nautical Twilight 5:34 AM CST 5:36 PM CST
Astronomical Twilight 5:03 AM CST 6:07 PM CST
Moon 8:12 PM CST (11/21) 9:40 AM CST (11/21)
Length of Visible Light 10h 59m
Length of Day
10h 03m
Waning Gibbous, 85% of the Moon is Illuminated
Nov 21
Waning Gibbous
Nov 25
Last Quarter
Dec 2
New
Dec 9
First Quarter
Dec 17
Full

Hourly Weather History & Observations

Time (CST) Temp. Windchill Dew Point Humidity Pressure Visibility Wind Dir Wind Speed Gust Speed Precip Events Conditions
12:52 AM 46.0 °F 44.8 °F 34.0 °F 63% 30.20 in 10.0 mi SSE 3.5 mph - N/A   Clear
1:52 AM 46.9 °F - 35.1 °F 63% 30.22 in 10.0 mi South 4.6 mph - N/A   Clear
2:52 AM 45.0 °F 41.8 °F 36.0 °F 71% 30.22 in 10.0 mi SE 5.8 mph - N/A   Clear
3:52 AM 45.0 °F 40.6 °F 37.0 °F 74% 30.22 in 10.0 mi SE 8.1 mph - N/A   Clear
4:52 AM 46.0 °F 44.8 °F 37.0 °F 71% 30.23 in 10.0 mi ESE 3.5 mph - N/A   Clear
5:52 AM 46.0 °F 43.1 °F 39.0 °F 76% 30.24 in 10.0 mi SE 5.8 mph - N/A   Clear
6:52 AM 44.1 °F 40.8 °F 37.9 °F 79% 30.25 in 10.0 mi ESE 5.8 mph - N/A   Clear
7:52 AM 50.0 °F - 41.0 °F 71% 30.26 in 10.0 mi SSE 5.8 mph - N/A   Clear
8:52 AM 54.0 °F - 43.0 °F 66% 30.27 in 10.0 mi South 9.2 mph - N/A   Clear
9:52 AM 57.0 °F - 45.0 °F 64% 30.26 in 10.0 mi South 10.4 mph - N/A   Clear
10:52 AM 59.0 °F - 46.9 °F 64% 30.24 in 10.0 mi South 6.9 mph - N/A   Clear
11:52 AM 63.0 °F - 48.0 °F 58% 30.21 in 10.0 mi SSE 8.1 mph - N/A   Clear
12:52 PM 64.9 °F - 48.0 °F 54% 30.17 in 10.0 mi SSE 9.2 mph - N/A   Clear
1:52 PM 66.0 °F - 48.0 °F 52% 30.16 in 10.0 mi South 11.5 mph - N/A   Clear
2:52 PM 66.0 °F - 48.0 °F 52% 30.17 in 10.0 mi Calm Calm - N/A   Clear
3:52 PM 64.0 °F - 46.0 °F 52% 30.18 in 10.0 mi SSW 3.5 mph - N/A   Clear
4:52 PM 63.0 °F - 45.0 °F 52% 30.19 in 10.0 mi Calm Calm - N/A   Scattered Clouds
5:52 PM 60.1 °F - 48.0 °F 64% 30.22 in 10.0 mi Calm Calm - 0.00 in Rain Light Rain
6:52 PM 57.0 °F - 51.1 °F 81% 30.21 in 10.0 mi North 3.5 mph - 0.01 in   Overcast
7:52 PM 57.9 °F - 51.1 °F 78% 30.22 in 10.0 mi SSE 5.8 mph - 0.01 in   Overcast
8:52 PM 57.0 °F - 52.0 °F 83% 30.21 in 10.0 mi SSE 5.8 mph - N/A   Overcast
9:52 PM 57.9 °F - 53.1 °F 84% 30.20 in 10.0 mi South 9.2 mph - N/A   Mostly Cloudy
10:52 PM 59.0 °F - 54.0 °F 83% 30.19 in 10.0 mi South 13.8 mph - N/A   Overcast
11:52 PM 60.1 °F - 54.0 °F 80% 30.19 in 10.0 mi South 9.2 mph - N/A   Overcast